www.pogodaiklimat.ru

Погода и климат >> Архив погоды >> Россия >> Саратовская область >> Красный Кут


ПОГОДА в Красном Куте

  • Прогноз погоды в Красном Куте
  • Монитор погоды в Красном Куте

АРХИВ ПОГОДЫ в Красном Куте

Время (UTC), дата Ветер
(напр.,м/с)
 
Видим.   Явления Облачность Т
(С)
Тd
(С)
f
(%)
Тe
(С)
Тes
(С)
Комфортность P
(гПа)
Po
(гПа)
Тmin
(С)
Tmax
(С)
R
(мм)
R24
(мм)
S
(см)
12 8.09 В 2 10 км ясно +23.7 +2.7 25 +23 +28 комфорт 1026.3 1020.5
15 8.09 СВ 2 10 км ясно +22.9 +3.1 27 +23 +23 комфорт 1026.4 1020.9 +24.1
18 8.09 СВ 1 10 км ясно +13.8 +3.1 48 +14 +14 1027.9 1021.9
21 8.09 СВ 1 10 км ясно +12.1 +4.0 58 +12 +12 1028.3 1022.2
00 9.09 СЗ 2 10 км ясно +6.5 +3.2 79 +4 +4 1029.0 1022.8
03 9.09 С 1 10 км ясно +5.6 +3.2 85 +4 +5 1029.8 1023.6 +5.0
06 9.09 СВ 1 10 км ясно +19.3 +7.0 45 +21 +28 комфорт 1029.7 1023.8
09 9.09 С 3 10 км 3/0
[Ci fib]
+22.6 +5.0 32 +23 +31 комфорт 1029.1 1023.3
12 9.09 СВ 2 10 км ясно +23.9 +4.0 27 +23 +29 комфорт 1027.7 1021.9
15 9.09 СВ 1 10 км ясно +21.5 +5.4 35 +22 +22 комфорт 1027.3 1021.4 +24.3
18 9.09 СВ 1 10 км 3/0
[Ac trans]
+11.8 +5.4 65 +12 +12 1028.2 1022.2
21 9.09 СВ 2 10 км ясно +12.7 +5.9 63 +12 +12 1028.6 1022.5
00 10.09 штиль 0 10 км ясно +9.6 +5.7 77 +9 +9 1028.7 1022.6
03 10.09 СЗ 1 10 км 3/0
[Ac trans]
+7.4 +4.8 84 +7 +7 1029.5 1023.3 +6.7
06 10.09 СВ 3 10 км 6/0
[Ci fib]
+21.0 +7.0 40 +22 +27 комфорт 1029.5 1023.6
09 10.09 СВ 3 10 км 6/6 1500 м
[Cu hum]
+25.5 +7.8 32 +26 +29 жарко 1028.5 1022.8
12 10.09 СВ 3
{12}
10 км 6/6 1500 м
[Cu hum]
+26.1 +8.1 32 +26 +28 жарко 1027.7 1021.9
15 10.09 С 3 10 км 10/6 1500 м
[Sc Ac trans Ci fib]
+22.9 +8.6 40 +24 +24 комфорт 1028.0 1022.2 +26.4
18 10.09 СВ 1 10 км 6/0
[Ac trans]
+16.4 +10.5 68 +17 +17 1029.1 1023.1
21 10.09 штиль 0 10 км 4/0
[Ac trans]
+11.5 +9.0 85 +11 +11 1029.7 1023.6
00 11.09 СВ 2 10 км 4/0
[Ac trans]
+11.8 +8.1 78 +11 +11 1030.6 1024.5
03 11.09 штиль 0 10 км ясно +7.3 +6.2 93 +6 +6 1031.6 1025.5 +6.6
06 11.09 СВ 2 10 км ясно +18.8 +6.9 46 +20 +25 1032.0 1026.1
09 11.09 СВ 3 10 км ясно +23.3 +6.0 33 +24 +32 комфорт 1031.8 1025.9
12 11.09 СВ 3 10 км ясно +24.0 +5.6 30 +24 +28 комфорт 1031.0 1025.2
15 11.09 СВ 2 10 км ясно +21.1 +4.3 33 +21 +21 комфорт 1030.7 1024.8 +24.2
18 11.09 СВ 2 10 км ясно +16.4 +4.0 44 +17 +17 1031.2 1025.2
21 11.09 СЗ 1 10 км ясно +9.7 +4.6 71 +9 +9 1031.0 1024.9
00 12.09 СВ 1 10 км ясно +8.7 +5.1 78 +8 +8 1030.8 1024.7
03 12.09 СВ 1 10 км ясно +9.3 +5.1 75 +9 +9 1031.3 1025.2 +7.7
06 12.09 СВ 1 10 км ясно +19.9 +5.8 40 +22 +28 комфорт 1031.2 1025.3
09 12.09 СВ 2 10 км 3/3 1500 м
[Cu hum]
+26.0 +3.4 23 +25 +32 комфорт 1029.8 1024.1
12 12.09 СВ 2
{11}
10 км 3/0
[Ac trans]
+26.9 +2.4 20 +25 +29 комфорт 1028.2 1022.5
15 12.09 штиль 0 10 км ясно +22.7 +4.6 31 +23 +23 комфорт 1027.6 1021.7 +27.4
18 12.09 СВ 2 10 км ясно +16.8 +3.4 41 +17 +17 1028.0 1022.1
21 12.09 СВ 2 10 км ясно +14.3 +4.5 52 +14 +14 1027.8 1021.5
00 13.09 штиль 0 10 км ясно +9.1 +3.7 69 +9 +9 1027.1 1021.0
03 13.09 СВ 1 10 км 3/0
[Ac trans]
+5.9 +2.7 80 +5 +5 1027.2 1021.0 +5.9
06 13.09 В 1 10 км 4/0
[Ci fib]
+20.9 +5.6 37 +23 +29 комфорт 1026.9 1021.0
09 13.09 ЮВ 1 10 км 4/4 1500 м
[Cu hum]
+27.7 +2.6 20 +26 +33 жарко 1025.3 1019.6
12 13.09 ЮЗ 2 10 км 4/0
[Ac trans]
+26.1 +3.3 23 +25 +28 комфорт 1023.8 1018.1
15 13.09 штиль 0 10 км 3/0
[Ac trans]
+24.2 +4.8 28 +24 +24 комфорт 1022.6 1016.8 +28.2
18 13.09 штиль 0 10 км ясно +12.2 +6.5 68 +12 +12 1022.8 1016.8
21 13.09 штиль 0 10 км 6/0
[Ci fib]
+13.4 +7.2 66 +13 +13 1022.0 1016.0
00 14.09 ЮВ 1 10 км 6/0
[Ci fib]
+13.3 +6.2 62 +14 +14 1021.0 1015.0
03 14.09 Ю 2 10 км 3/0
[Ac trans]
+11.3 +4.7 64 +10 +10 1020.4 1014.4 +7.7
06 14.09 Ю 2 10 км 6/6 1500 м
[Cu hum]
+20.3 +7.5 44 +22 +24 комфорт 1019.8 1014.0
09 14.09 ЮЗ 5
{10}
10 км 6/6 1500 м
[Cu hum]
+27.2 +2.9 21 +26 +28 жарко 1018.3 1012.6
12 14.09 ЮЗ 5
{11}
10 км 6/6 1500 м
[Cu hum]
+27.8 +2.3 19 +26 +27 жарко 1016.8 1011.1
15 14.09 Ю 4 10 км 6/6 1500 м
[Cu hum]
+24.3 +2.2 24 +23 +23 комфорт 1015.8 1010.1 +28.1
18 14.09 Ю 2 10 км 8/8 1500 м
[Sc]
+18.3 +3.5 37 +19 +19 1015.6 1009.7
21 14.09 Ю 2 10 км 10/10 1500 м
[Sc]
+16.9 +5.1 46 +17 +17 1014.9 1009.0
00 15.09 СЗ 2 10 км 10/10 1500 м
[Sc]
+16.2 +10.0 67 +16 +16 1015.5 1009.6
03 15.09 СЗ 2 10 км 10/4 1500 м
[Sc Ac trans]
+14.2 +9.7 74 +14 +14 1015.7 1009.7 +14.2
06 15.09 СЗ 4 10 км слаб. ливневой дождь 10/10 1500 м
[Cb cap]
+12.7 +10.9 89 +11 +11 1017.3 1011.3 +12.7
09 15.09 З 4 10 км {ливн. осадки} 8/5 1500 м
[Cu hum Ac trans]
+19.1 +9.1 52 +20 +22 1016.3 1010.5

 

Местоположение метеостанции Красный Кут (Саратовская область, Россия): широта 50.95 долгота 46.97 высота над уровнем моря 50 м.

В архиве по умолчанию представлена погода в Красном Куте за последнюю неделю. Архивные данные за месяц целиком и за предыдущие месяцы, начиная с января 2011 года, Вы можете получить, выбрав интересующий диапазон дат из раскрывающегося списка и нажав кнопку "Ввод!".


*Определитесь, кто Вы:
робот инопланетянин человек

Внимание! Время в таблицах - всемирное. Для получения местного времени необходимо прибавить поправку, которая равна 4 ч.

Смотрите также архив погоды в соседних городах и на ближайших метеорологических станциях:

Погода в Маркс (Саратовская область, Россия) (85 км)
Погода в Саратове (Саратовская область, Россия) (95 км)
Погода в Саратове ЮВ (Саратовская область, Россия) (97 км)
Погода в Новоузенске (Саратовская область, Россия) (100 км)
Погода в Палласовке (Волгоградская область, Россия) (100 км)
Погода в Ершове (Саратовская область, Россия) (104 км)
Погода в Сплавнухе (Саратовская область, Россия) (112 км)
Погода в Октябрьском Городке (Саратовская область, Россия) (130 км)
Погода в Балаково (Саратовская область, Россия) (133 км)
Погода в Александровом Гае (Саратовская область, Россия) (143 км)

Пояснения к столбцам:

Ветер - указаны скорость ветра в м/с - средняя за 10 мин, порывы в срок и между сроками (в фигурных скобках) и направление, откуда дует ветер: С - северный, СВ - северо-восточный, В - восточный, ЮВ - юго-восточный, Ю - южный, ЮЗ - юго-западный, З - западный, СЗ - северо-западный.
Видимость - горизонтальная дальность видимости в метрах или километрах. При видимости от 1 до 10 км при отсутствии осадков обычно наблюдается дымка, при ухудшении видимости до 1 км и менее - туман. В сухую погоду видимость может ухудшаться дымом, пылью или мглою.
Явления - указаны атмосферные явления, наблюдавшиеся в срок или в последний час перед сроком; фигурными скобками обозначены явления, наблюдавшиеся между сроками (за 1-3 часа до срока); квадратными скобками обозначены град или гололедные отложения с указанием их диаметра в мм.
Облачность - указаны через наклонную черту общая и нижняя облачность в баллах и высота нижней границы облаков в метрах; квадратными скобками обозначены формы облаков: Ci - перистые, Cs - перисто-слоистые, Cc - перисто-кучевые, Ac - высококучевые, As - высокослоистые, Sc - слоисто-кучевые, Ns - слоисто-дождевые, Cu - кучевые, Cb - кучево-дождевые. Подробнее классификацию облаков см. в Атласе облаков (PDF).
T - Температура воздуха - температура, измеренная на высоте 2 м над землей.
Td - Температура точки росы - температура, при понижении до которой содержащийся в воздухе водяной пар достигнет насыщения.
f - Относительная влажность воздуха - влажноcть воздуха, измеренная на высоте 2 м над землей.
Te - Эффективная температура - температура, которую ощущает одетый по сезону человек в тени. Характеристика душности погоды. При расчете учитывается влияние влажности воздуха и скорости ветра на теплоощущения человека.
Tes - Эффективная температура на солнце - температура, которую ощущает человек, с поправкой на солнечный нагрев. Характеристика знойности погоды. Зависит от высоты солнца над горизонтом, облачности и скорости ветра. Ночью, в пасмурную погоду, а также при ветре 12 м/с и более поправка равна нулю.
P - Атмосферное давление - приведенное к уровню моря атмосферное давление.
Po - Атмосферное давление - измеренное на уровне метеостанции атмосферное давление.
Tmin - Минимальная температура - минимум температуры воздуха на высоте 2 м над землей.
Tmax - Максимальная температура - максимум температуры воздуха на высоте 2 м над землей.
R - Количество осадков - Количество выпавших осадков за период времени, мм. При наведении курсора мыши на число - период времени, за который выпало указанное количество осадков.
R24 - Количество осадков - Количество выпавших осадков за 24 часа, мм.
S - Снежный покров - Высота снежного покрова, см. При наведении курсора мыши на число - состояние снежного покрова и степень покрытия местности в баллах.